TimeEST,TemperatureF,Dew PointF,Humidity,Sea Level PressureIn,VisibilityMPH,Wind Direction,Wind SpeedMPH,Gust SpeedMPH,PrecipitationIn,Events,Conditions,WindDirDegrees,DateUTC
12:53 AM,60.1,55.0,83,30.11,10.0,WNW,3.5,-,N/A,,Mostly Cloudy,290,2013-02-20 05:53:00
1:53 AM,57.9,54.0,87,30.12,10.0,Calm,Calm,-,N/A,,Mostly Cloudy,0,2013-02-20 06:53:00
2:53 AM,57.0,50.0,77,30.12,10.0,NNW,11.5,-,N/A,,Mostly Cloudy,330,2013-02-20 07:53:00
3:53 AM,54.0,45.0,72,30.13,10.0,North,9.2,-,N/A,,Clear,350,2013-02-20 08:53:00
4:53 AM,52.0,39.9,63,30.14,10.0,North,8.1,-,N/A,,Clear,350,2013-02-20 09:53:00
5:53 AM,50.0,37.9,63,30.15,10.0,North,8.1,-,N/A,,Clear,360,2013-02-20 10:53:00
6:53 AM,48.0,28.9,48,30.18,10.0,North,6.9,-,N/A,,Clear,350,2013-02-20 11:53:00
8:53 AM,50.0,32.0,50,30.19,10.0,North,6.9,-,N/A,,Clear,360,2013-02-20 13:53:00
9:53 AM,52.0,28.0,40,30.19,10.0,NNW,8.1,-,N/A,,Clear,340,2013-02-20 14:53:00
10:53 AM,55.9,28.0,34,30.19,10.0,NNE,3.5,-,N/A,,Clear,30,2013-02-20 15:53:00
11:53 AM,59.0,25.0,27,30.17,10.0,Calm,Calm,-,N/A,,Clear,0,2013-02-20 16:53:00
12:53 PM,61.0,26.1,26,30.13,10.0,Calm,Calm,-,N/A,,Clear,0,2013-02-20 17:53:00
1:53 PM,64.0,27.0,25,30.10,10.0,NW,6.9,-,N/A,,Clear,320,2013-02-20 18:53:00
2:53 PM,64.9,34.0,32,30.09,10.0,Variable,3.5,-,N/A,,Clear,0,2013-02-20 19:53:00
3:53 PM,68.0,26.1,21,30.08,10.0,WNW,5.8,-,N/A,,Clear,300,2013-02-20 20:53:00
5:53 PM,57.0,39.0,51,30.10,5.0,East,4.6,-,N/A,,Haze,90,2013-02-20 22:53:00
6:53 PM,55.0,39.9,57,30.12,10.0,Calm,Calm,-,N/A,,Clear,0,2013-02-20 23:53:00
7:53 PM,53.1,41.0,64,30.14,10.0,Calm,Calm,-,N/A,,Clear,0,2013-02-21 00:53:00
8:53 PM,52.0,43.0,71,30.12,10.0,Calm,Calm,-,N/A,,Clear,0,2013-02-21 01:53:00
9:53 PM,50.0,43.0,77,30.14,10.0,Calm,Calm,-,N/A,,Clear,0,2013-02-21 02:53:00
10:53 PM,48.9,43.0,80,30.12,10.0,Calm,Calm,-,N/A,,Clear,0,2013-02-21 03:53:00
11:53 PM,46.9,42.1,83,30.12,10.0,Calm,Calm,-,N/A,,Clear,0,2013-02-21 04:53:00